Location: Hains Lake
(37.8540°N, 99.8578°W)
Time: 04:59:39
(UTC+00:00)

Tiros 1 despin weight - Pass Details

Date: 28 April 2021
Orbit: 593 x 642 km, 48.2° (Epoch: 07 May)

Event Time Altitude Azimuth Distance (km) Brightness Sun altitude
Rises 14:03:10 0° 304° (NW) 2,900 ? 25.7°
Reaches altitude 10° 14:05:31 10° 308° (NW) 1,983 ? 26.1°
Maximum altitude 14:10:03 66° 31° (NNE) 668 ? 27.0°
Drops below altitude 10° 14:14:29 10° 113° (ESE) 1,944 ? 27.9°
Sets 14:16:46 0° 117° (ESE) 2,838 ? 28.4°
